User: anonymous   Login
Location: Zagreb
(45.8000°N, 16.0000°E)
Time: 00:47:19
(UTC+01:00)
Language:

S-56A Canister/Altair - Orbit

View from above orbital plane
View from above orbital plane
View from above satellite
View from above satellite

Ground track
Ground track

The orbit data is extracted from the following two-line orbital elements,

1    82U 61004B   20025.44374440 -.00000028 +00000-0 +25697-4 0  9994
2    82 038.8576 011.6172 1173560 108.5470 264.6137 12.26059754790135
Epoch (UTC): 25 January 2020 10:38:59
Eccentricity: 0.1173560
inclination: 38.8576°
perigee height: 634 km
apogee height: 2498 km
right ascension of ascending node: 11.6172°
argument of perigee: 108.5470°
revolutions per day: 12.26059754
mean anomaly at epoch: 264.6137°
orbit number at epoch: 79013

The dashed part of the orbit path shows where the satellite is in the earth's shadow,  

DLR